Theta_e
316 315 317 316 313 310 313 313 313 312 314 317 315 315 314 314 314 315 317 317 319 322 324 324 324 326 328 329 330 331 331 331 331 331 331 331 330 330 329 328 327 328 325 324
314 315 312 313 314 312 314 312 311 314 313 314 311 312 310 311 313 316 316 317 317 317 318 319 318 318 322 326 328 329 330 331 331 331 331 331 331 331 330 330 329 325 322 323
312 309 310 313 315 314 313 311 311 312 312 309 308 308 307 307 309 312 314 315 315 315 314 315 317 317 317 317 317 317 317 317 318 324 329 330 331 331 330 330 328 322 323 324
309 309 312 312 314 313 315 312 311 312 311 312 306 305 305 305 304 303 308 309 310 310 310 311 311 314 316 316 315 315 314 314 314 314 314 316 320 325 326 328 327 322 320 320
305 309 311 312 312 313 313 311 311 310 309 310 309 308 305 303 305 304 304 307 308 308 310 310 310 310 310 311 311 311 310 311 312 312 313 314 316 317 318 319 318 317 319 318
308 310 309 310 310 312 310 311 311 309 308 309 309 308 306 305 305 306 308 309 309 309 310 311 311 311 311 311 311 311 311 311 311 311 311 312 313 314 315 314 313 315 316 318
310 310 309 310 311 310 311 313 315 316 315 314 303 307 307 305 302 304 305 309 310 310 310 311 311 312 312 312 311 311 311 311 311 311 311 311 310 311 311 312 313 315 316 320
311 309 310 310 310 311 310 312 314 316 307 305 304 306 305 304 306 307 307 310 310 311 311 311 311 312 312 312 312 312 313 313 313 314 314 312 311 311 311 312 314 315 318 319
311 310 309 310 310 310 311 311 307 307 301 306 305 304 304 305 305 306 307 309 310 310 310 311 311 312 312 312 312 312 312 312 312 312 312 314 315 315 313 312 313 314 316 318
309 310 308 310 309 310 309 308 311 308 306 306 303 304 305 305 307 307 306 308 309 309 310 311 311 310 309 308 308 308 309 310 310 310 309 309 310 313 315 317 317 318 319 320
309 310 310 311 310 310 310 310 309 309 307 306 303 303 300 303 304 306 306 308 310 311 311 310 309 308 307 307 306 306 307 307 308 309 310 309 308 308 309 312 315 317 317 317
310 310 311 311 307 306 309 310 308 308 306 306 307 306 304 301 302 304 307 308 310 310 309 309 308 307 306 305 305 305 305 305 306 307 308 309 309 308 307 307 307 308 308 307
309 311 306 306 309 307 309 309 309 307 307 307 306 304 303 305 305 305 307 308 309 309 308 308 308 306 306 305 305 305 305 305 305 305 306 308 309 308 307 307 307 306 306 306
307 309 308 307 307 307 310 309 309 309 309 309 307 306 307 306 306 305 307 308 308 309 309 309 308 308 308 308 307 306 306 305 305 305 306 306 308 309 307 306 306 306 306 306
305 306 305 307 305 306 307 307 309 310 310 309 308 306 305 304 304 306 307 307 308 309 309 309 308 308 308 308 307 307 306 305 305 305 305 306 307 307 308 306 306 305 306 306
302 295 300 298 303 305 306 306 307 309 310 309 307 307 304 306 307 306 307 307 308 309 309 309 308 307 308 308 307 306 305 305 305 305 305 305 306 307 307 307 306 305 305 305
302 295 302 297 302 303 304 306 307 307 309 309 310 309 306 306 306 307 307 308 308 309 308 308 309 307 307 306 306 305 305 305 305 305 305 305 305 305 306 307 306 305 305 305
302 300 302 298 292 299 301 304 304 305 306 306 307 306 306 307 308 309 310 309 308 309 308 308 309 307 306 306 305 305 304 304 304 303 303 303 304 305 305 306 306 306 305 304
302 301 297 297 297 298 301 301 302 304 305 306 306 306 307 307 307 308 309 309 309 309 309 309 308 307 306 305 305 304 304 302 301 301 300 300 300 302 304 305 305 304 303 303
300 302 303 296 301 301 300 300 303 304 304 303 305 305 305 304 305 306 307 307 308 309 309 309 307 305 305 304 304 303 301 301 300 300 300 299 299 300 302 304 304 303 302 301
300 302 302 302 303 298 298 300 303 303 302 302 303 303 303 302 305 305 306 306 305 306 307 305 305 304 304 304 302 301 300 300 300 299 298 298 298 299 301 302 302 302 301 300
297 298 298 301 302 301 299 299 302 303 303 302 303 303 302 304 304 305 305 305 304 304 304 303 304 304 303 301 300 299 299 299 299 298 297 297 298 299 300 301 301 300 299 298
297 298 297 298 299 300 300 301 303 303 302 303 303 303 304 303 303 303 303 303 303 303 304 304 303 301 300 299 299 299 299 298 297 297 297 297 298 298 299 299 299 298 298 296
296 297 297 298 299 298 299 300 302 303 303 304 303 303 302 303 303 303 304 303 303 303 303 302 301 300 300 300 299 299 298 297 297 296 297 297 298 298 297 297 296 295 295 294
296 297 296 297 298 299 301 302 302 302 303 303 303 304 303 303 303 303 303 303 303 302 302 301 301 300 299 299 298 298 297 296 296 296 297 297 297 297 296 295 294 292 290 289
297 297 299 299 300 301 300 300 301 302 302 303 302 303 301 301 301 300 300 299 299 298 298 298 299 299 299 298 298 296 296 296 296 296 296 296 295 295 294 292 291 290 289 286
Wind_Speed
3 2 6 5 2 2 5 3 3 1 2 3 5 7 8 9 8 11 15 16 18 20 18 17 18 18 20 22 22 21 20 19 21 21 21 21 21 20 19 19 18 18 19 20
3 6 5 3 2 2 3 4 2 1 2 2 2 9 7 8 10 19 20 20 21 21 20 18 17 15 15 17 18 20 22 24 24 24 25 25 25 24 24 23 21 20 21 21
4 1 7 4 3 4 1 4 3 1 1 3 3 6 4 4 10 20 25 26 25 26 23 20 17 17 15 14 14 14 15 16 18 21 24 28 30 30 30 28 25 22 21 20
3 2 5 1 3 4 4 4 5 5 2 3 2 5 5 1 7 7 23 19 21 19 21 25 23 23 22 20 20 21 21 22 23 24 25 27 29 31 31 29 26 24 22 23
4 3 5 4 4 6 2 5 5 3 4 2 2 2 7 3 5 9 3 5 10 13 9 7 13 17 17 16 17 18 19 21 21 21 21 22 23 24 25 25 24 23 23 22
2 1 1 4 2 5 7 6 7 4 3 2 4 4 5 4 5 2 3 4 2 6 8 9 8 6 6 8 10 12 14 15 17 19 20 21 22 23 24 24 24 21 21 20
2 1 3 1 5 3 2 5 2 2 1 5 1 1 6 10 5 3 6 2 6 8 9 7 5 4 3 3 3 3 4 5 8 10 12 16 20 22 21 19 17 17 16 16
5 2 5 2 2 6 4 4 6 5 3 2 2 6 6 5 6 10 9 7 7 7 6 6 6 5 4 4 3 2 1 1 2 2 3 6 8 10 14 16 16 14 14 15
3 1 2 2 0 1 3 2 1 7 1 3 4 6 10 4 4 2 6 10 9 7 6 6 7 6 4 3 2 2 2 2 2 2 3 3 4 5 6 8 11 14 14 14
3 2 2 1 2 2 4 5 2 2 3 4 4 4 5 5 6 2 4 10 9 9 9 8 7 7 5 4 4 4 4 4 5 5 5 5 6 5 6 7 8 9 10 11
2 3 3 2 4 6 3 2 2 4 3 4 1 5 6 6 6 7 9 10 8 9 9 10 10 6 5 5 4 4 5 5 6 7 7 8 8 8 8 8 9 10 11 12
2 2 4 3 3 3 2 2 4 3 5 3 1 6 3 7 8 10 12 10 9 11 11 10 7 6 5 3 3 4 6 7 8 8 8 8 8 9 9 9 9 10 10 11
3 3 2 4 2 0 4 5 4 3 2 5 4 6 2 5 3 6 11 11 13 13 11 8 4 2 2 1 2 4 7 8 10 11 12 11 10 10 10 10 10 10 11 11
6 1 1 2 3 3 3 5 9 6 2 8 6 5 4 5 5 6 13 17 15 14 12 8 4 5 5 5 6 6 9 11 12 13 12 11 12 12 12 12 13 12 12 12
3 4 2 2 3 1 2 7 8 12 21 10 19 11 7 5 6 12 13 16 17 15 13 9 6 8 9 7 8 11 13 14 14 13 13 12 13 13 13 14 14 14 14 13
1 3 2 4 8 7 5 9 9 16 21 14 14 9 5 5 7 11 16 15 17 21 17 9 7 9 9 11 13 14 12 11 8 7 8 10 12 13 12 13 14 15 16 15
3 3 1 5 3 1 5 13 10 8 14 15 15 24 6 8 10 15 16 22 27 30 23 13 12 11 11 13 13 10 9 7 7 8 9 11 13 14 14 15 15 16 17 18
5 3 3 3 3 0 6 2 5 10 14 8 12 11 7 18 27 26 23 23 28 29 31 26 20 13 16 14 10 9 6 6 8 9 10 11 13 14 16 17 17 17 17 18
10 4 3 2 3 4 9 6 7 8 11 12 17 17 20 23 14 20 28 30 31 31 31 28 20 19 16 12 9 8 7 7 7 9 12 14 14 15 17 18 18 18 18 18
7 9 6 1 4 7 9 3 2 4 5 8 17 17 18 14 5 14 33 30 31 29 26 22 21 19 15 13 10 8 7 9 11 14 16 17 17 17 16 17 19 19 19 18
3 5 15 12 7 7 12 8 7 3 10 4 15 23 13 8 21 21 13 9 11 18 22 20 16 15 14 12 9 8 9 12 15 18 20 20 19 17 17 18 18 19 19 19
7 6 5 7 7 11 9 5 11 13 21 9 11 15 14 18 22 25 22 17 12 11 13 13 13 12 10 9 9 10 13 16 19 21 22 21 19 18 17 17 17 18 18 18
4 7 5 8 6 8 13 7 13 24 25 28 26 22 21 12 11 12 12 12 12 11 12 12 11 10 8 8 10 13 16 18 19 20 20 20 19 17 17 17 17 17 17 17
4 5 4 3 10 12 18 20 26 25 22 26 20 19 17 10 8 8 10 8 9 11 12 11 12 11 10 13 16 18 19 21 22 22 21 20 19 17 16 16 16 16 16 16
6 9 4 5 17 8 26 25 28 21 22 21 28 22 16 9 7 6 6 7 8 11 12 13 14 15 16 18 19 21 23 24 23 21 20 19 18 17 16 15 15 13 13 12
9 7 5 8 11 9 17 25 25 19 23 25 18 13 18 11 9 8 8 10 12 12 14 17 19 22 21 23 24 24 24 21 20 20 19 18 17 15 14 13 12 12 12 8
Wind_Direction
154 153 201 221 221 66 137 137 150 225 356 165 214 264 237 231 255 250 246 248 248 243 242 239 242 243 241 243 241 242 243 245 248 250 252 253 256 261 265 271 276 277 280 280
96 239 205 166 187 81 120 126 174 321 20 142 55 271 260 257 246 245 247 249 249 250 247 243 236 235 235 240 244 246 249 248 250 250 252 254 258 261 264 266 267 272 277 279
173 282 162 145 152 138 113 152 170 211 88 68 336 287 268 254 259 255 251 253 255 254 252 242 232 225 228 233 238 244 249 253 253 253 253 254 256 259 260 262 267 273 278 279
261 352 132 141 185 144 166 186 128 126 96 233 5 271 293 301 284 270 259 256 259 260 259 246 237 237 242 247 252 257 260 259 259 255 254 256 258 259 262 264 266 268 268 271
241 183 157 179 203 161 196 131 115 88 78 11 341 42 275 353 288 266 316 285 259 247 246 227 225 236 242 246 252 256 258 257 256 253 253 254 256 260 261 259 260 264 263 266
202 309 259 215 76 149 147 91 59 52 57 335 216 171 264 238 220 355 13 13 92 150 155 153 164 190 226 253 260 262 263 263 261 260 259 259 257 256 258 262 267 266 264 262
31 315 303 10 85 51 167 127 43 308 208 235 7 254 266 271 236 263 312 250 134 133 140 143 149 164 197 227 260 271 275 273 271 267 264 262 261 260 262 262 262 260 258 257
151 228 186 178 198 187 173 202 152 195 209 268 341 236 240 238 294 290 253 189 174 163 159 152 148 143 145 147 146 133 104 66 24 346 304 277 272 266 260 255 252 252 250 255
148 209 348 15 61 155 197 209 138 104 96 34 231 292 300 240 245 303 201 179 182 184 186 170 163 154 149 138 115 78 52 37 9 353 343 333 308 290 273 254 246 245 248 253
328 175 10 341 137 38 160 173 114 17 131 239 266 272 243 285 268 168 195 206 193 189 180 172 163 151 129 104 79 57 32 9 347 337 328 320 310 297 278 260 247 240 241 244
174 133 332 129 216 184 151 195 107 124 148 207 273 260 220 246 238 211 217 208 199 178 169 159 152 142 121 105 81 51 28 7 345 334 328 321 314 304 293 279 267 257 253 252
166 169 181 179 338 316 311 224 156 153 217 243 226 265 238 246 266 229 216 206 188 169 156 153 151 141 121 86 45 15 360 353 347 340 327 312 309 306 298 287 274 262 255 250
174 194 92 11 5 238 222 198 199 123 104 203 158 259 309 293 292 203 199 184 170 164 162 149 136 143 182 208 317 336 336 329 324 323 326 322 310 296 288 281 274 265 257 251
146 351 275 204 113 340 228 222 199 184 157 239 235 274 260 240 231 213 194 184 181 182 180 184 211 255 257 265 266 289 309 311 309 304 303 306 301 290 281 276 273 267 262 260
138 208 162 204 263 251 274 300 252 207 226 212 251 242 239 259 238 236 217 204 202 201 205 214 274 277 257 258 267 293 300 299 297 291 292 292 288 290 285 276 272 267 265 266
299 285 12 284 237 204 226 256 247 237 240 235 238 273 188 257 236 231 229 225 227 215 215 224 279 278 244 246 275 287 291 291 290 294 303 293 287 282 283 279 272 268 267 270
152 114 50 279 304 273 273 231 223 234 242 229 240 245 163 232 242 246 235 226 230 228 228 251 290 256 239 273 276 280 253 247 273 291 294 291 290 287 282 278 276 271 268 268
190 164 203 249 12 250 250 227 212 222 255 244 265 266 209 238 244 250 253 252 239 239 246 265 287 253 274 274 257 223 235 280 297 302 303 301 295 288 282 278 276 277 276 275
203 156 263 198 199 305 311 266 188 178 256 210 229 253 255 255 257 261 256 252 256 257 257 266 263 265 273 255 225 228 256 273 290 303 308 307 302 291 282 277 274 273 275 277
206 197 201 130 206 216 239 277 185 132 292 202 219 248 245 177 210 250 259 255 252 254 256 252 252 262 246 232 224 243 263 285 300 310 314 312 305 297 286 274 269 269 270 270
157 212 221 235 246 282 258 214 164 195 247 168 235 249 252 197 224 248 274 262 259 250 249 250 238 229 217 219 236 263 290 304 311 316 316 312 306 297 287 277 270 265 265 265
168 174 200 214 228 254 219 127 191 230 245 306 292 297 258 253 257 253 261 265 260 241 232 211 200 204 216 239 270 296 306 310 312 313 313 313 309 299 288 278 270 265 264 262
235 193 186 181 210 236 203 236 235 253 267 284 282 294 268 254 257 259 261 256 240 222 206 205 212 226 248 274 291 298 300 303 304 304 305 305 303 297 289 281 274 267 261 257
245 175 217 101 251 255 275 271 267 259 265 292 295 297 277 254 244 254 257 248 226 217 217 225 237 252 267 280 287 292 296 297 297 297 297 298 298 292 283 276 270 265 260 254
196 160 194 253 267 296 273 274 280 275 270 278 270 278 258 243 246 245 247 246 237 233 237 251 258 262 269 276 283 289 291 291 288 289 291 291 291 288 283 276 266 259 254 247
188 184 197 240 226 215 262 290 278 291 295 271 264 274 273 276 265 246 244 249 257 268 270 267 263 263 270 277 283 288 287 285 287 289 289 286 283 279 274 265 259 257 249 236